World > North America > United States > New Jersey

Villas, New Jersey Regional Weather

Lat: 39.03N, Lon: 74.94W
Wx Zone: NJZ023
Warning NWS WEATHER ALERT - (More Info. Click Here) Warning
Feedback

Villas, NJ Regional Weather

Expires:201910162000;;806887
ASUS41 KPHI 161912
RWRPHI

REGIONAL WEATHER ROUNDUP
NATIONAL WEATHER SERVICE MOUNT HOLLY NJ
300 PM EDT WED OCT 16 2019

NOTE:  "FAIR" INDICATES FEW OR NO CLOUDS BELOW 12,000 FEET WITH NO
SIGNIFICANT WEATHER AND/OR OBSTRUCTIONS TO VISIBILITY.

 * = STATION DOES NOT REPORT PRECIPITATION (E.G. RAIN, SNOW, ETC.) 
        OR FOG.


NJZ015>026-162000-
SOUTHERN NEW JERSEY
  
CITY           SKY/WX    TMP DP  RH WIND       PRES   REMARKS
POMONA         RAIN      67  60  78 SE22G35   29.60F                  
WILDWOOD*      LGT RAIN  67  64  90 SE23G36   29.54F FOG              
MILLVILLE      LGT RAIN  66  62  87 SE16G28   29.54F                  
WRIGHTSTOWN    LGT RAIN  66  63  88 SE8G17    29.59F                  
MOUNT HOLLY    CLOUDY    66  62  87 SE5       29.59F                  
TRENTON        LGT RAIN  64  62  93 SE9       29.61F                  

$$

SKY/WX - Weather  TMP - Temperature  DP - Dew Point  RH - Relative Humidity
WIND - Wind Direction/Speed PRES - Barometric Pressure VSB - Visibility
WCI - Wind Chill Index E13G22 Wind - East Wind 13 mph/Gusts of 22 mph